TimeEST,TemperatureF,Dew PointF,Humidity,Sea Level PressureIn,VisibilityMPH,Wind Direction,Wind SpeedMPH,Gust SpeedMPH,PrecipitationIn,Events,Conditions,WindDirDegrees,DateUTC
12:56 AM,53.1,52.0,96,30.23,10.0,Calm,Calm,-,N/A,,Partly Cloudy,0,2012-12-05 05:56:00
1:56 AM,52.0,50.0,93,30.22,10.0,Calm,Calm,-,N/A,,Partly Cloudy,0,2012-12-05 06:56:00
2:45 AM,51.8,50.0,94,30.20,7.0,Calm,Calm,-,N/A,,Scattered Clouds,0,2012-12-05 07:45:00
2:56 AM,52.0,51.1,97,30.20,7.0,Calm,Calm,-,N/A,,Scattered Clouds,0,2012-12-05 07:56:00
3:56 AM,50.0,48.9,96,30.19,8.0,Calm,Calm,-,N/A,,Scattered Clouds,0,2012-12-05 08:56:00
4:07 AM,50.0,48.2,94,30.18,3.0,Calm,Calm,-,N/A,,Mostly Cloudy,0,2012-12-05 09:07:00
4:56 AM,48.9,48.0,97,30.17,5.0,Calm,Calm,-,N/A,,Overcast,0,2012-12-05 09:56:00
5:56 AM,48.0,46.9,96,30.19,7.0,Calm,Calm,-,N/A,,Overcast,0,2012-12-05 10:56:00
6:11 AM,48.2,48.2,100,30.18,1.0,Calm,Calm,-,N/A,,Overcast,0,2012-12-05 11:11:00
6:35 AM,48.2,46.4,93,30.19,5.0,Calm,Calm,-,N/A,,Mostly Cloudy,0,2012-12-05 11:35:00
6:50 AM,48.2,46.4,93,30.19,4.0,Calm,Calm,-,N/A,,Mostly Cloudy,0,2012-12-05 11:50:00
6:56 AM,48.0,46.9,96,30.19,10.0,Calm,Calm,-,N/A,,Mostly Cloudy,0,2012-12-05 11:56:00
7:56 AM,48.0,48.0,100,30.21,10.0,Calm,Calm,-,N/A,,Scattered Clouds,0,2012-12-05 12:56:00
9:56 AM,63.0,59.0,87,30.23,10.0,NE,3.5,-,N/A,,Mostly Cloudy,40,2012-12-05 14:56:00
10:56 AM,70.0,59.0,68,30.22,10.0,North,5.8,-,N/A,,Mostly Cloudy,10,2012-12-05 15:56:00
11:56 AM,73.0,57.9,59,30.19,10.0,North,5.8,-,N/A,,Mostly Cloudy,10,2012-12-05 16:56:00
12:56 PM,75.0,57.0,53,30.15,10.0,East,6.9,-,N/A,,Mostly Cloudy,80,2012-12-05 17:56:00
1:56 PM,75.0,57.0,53,30.12,10.0,ENE,6.9,-,N/A,,Mostly Cloudy,70,2012-12-05 18:56:00
2:56 PM,73.0,54.0,51,30.10,10.0,NE,8.1,-,N/A,,Mostly Cloudy,50,2012-12-05 19:56:00
3:56 PM,71.1,55.9,59,30.10,10.0,East,9.2,-,N/A,,Mostly Cloudy,80,2012-12-05 20:56:00
4:56 PM,69.1,55.9,63,30.10,10.0,ENE,8.1,-,N/A,,Mostly Cloudy,70,2012-12-05 21:56:00
5:56 PM,66.9,55.9,68,30.11,10.0,East,6.9,-,N/A,,Overcast,100,2012-12-05 22:56:00
6:56 PM,64.9,57.0,75,30.12,10.0,East,5.8,-,N/A,,Overcast,80,2012-12-05 23:56:00
7:56 PM,64.9,60.1,84,30.12,10.0,ENE,5.8,-,N/A,,Overcast,70,2012-12-06 00:56:00
8:56 PM,64.9,61.0,87,30.13,10.0,East,3.5,-,N/A,,Overcast,90,2012-12-06 01:56:00
9:56 PM,63.0,60.1,90,30.13,10.0,ENE,3.5,-,N/A,,Overcast,70,2012-12-06 02:56:00
10:37 PM,62.6,60.8,94,30.13,5.0,Calm,Calm,-,N/A,Rain,Light Rain,0,2012-12-06 03:37:00
10:49 PM,62.6,60.8,94,30.12,4.0,ENE,5.8,-,0.01,Rain,Light Rain,60,2012-12-06 03:49:00
10:56 PM,62.1,60.1,93,30.13,3.0,ENE,4.6,-,0.01,Rain,Light Rain,60,2012-12-06 03:56:00
11:56 PM,62.1,60.1,93,30.12,10.0,North,3.5,-,0.02,,Overcast,10,2012-12-06 04:56:00